Погода в Старосокольниках

Россия / Псковская область     56°20′40″N   30°00′37″E
темп.,
°C
ветер,
м/с
пор.,
м/с
влажн.,
%
обл.,
%
осадки,
мм/ч
давл.,
гПа
погр.,
м
5 декабря, вс
вс500:00−4ю129892 0.6 100851
03:00−5св0198100 0.9 100923
06:00−6ссв239894 0.3 100977
09:00−7ссв259787 0.4 1011142
12:00−6св249296 0.1 1013231
15:00−6ссв249398 0.2 1014284
18:00−8ссв379586 0.2 1015239
21:00−10ссв379591 0.3 1017220
6 декабря, пн
пн600:00−11ссв2696100 0.1 1017191
03:00−11ссв2697100 0.1 1018167
06:00−10св2695100 0.2 1017171
09:00−9св2595100 0.5 1017165
12:00−7св239397 0.2 1017187
15:00−4всв2393100 0.3 1016249
18:00−5св259795 0.4 1015171
21:00−5св2397100 0.8 1015100
7 декабря, вт
вт700:00−5всв1398100 0.3 101467
03:00−5ссв1298100 0.6 101353
06:00−6ссв2598100 0.1 1012118
09:00−6с269699 0.6 1011195
12:00−6с359392 0.4 1012236
15:00−6с2593100 0.4 1012288
18:00−9с389699 0.1 1013245
21:00−11ссз279783 0.1 1014204
8 декабря, ср
ср800:00−13ссз279770 0.0 1015166
03:00−14ссз269756 0.0 1016142
06:00−15ссз269890 0.0 1017117
09:00−16ссз269998 0.0 101893
12:00−12ссв259486 0.0 1019175
15:00−11с259559 0.0 1019229
18:00−16ссв1110077 0.0 10209
21:00−16ссв26100100 0.0 1021112
9 декабря, чт
чт900:00−15ссв27100100 0.0 1022141
03:00−15св3999100 0.1 1022199
06:00−15ссв31098100 0.0 1021219
09:00−15ссв3109789 0.0 1021214
12:00−12ссв3109350 0.0 1021232
15:00−11св310925 0.0 1020287
18:00−12св4119550 0.0 1020245
21:00−11ссз359493 0.0 1022192